Location: Iesi
(43.5167°N, 13.2333°E)
Time: 17:08:08
(UTC+00:00)

Cosmos 972 Rocket - Pass Details

Date: 08 August 2020
Orbit: 713 x 1151 km, 75.8° (Epoch: 22 September)

Event Time Altitude Azimuth Distance (km) Brightness Sun altitude
Rises 19:27:34 0° 339° (NNW) 3,211 8.2 -11.5°
Reaches altitude 10° 19:29:59 10° 337° (NNW) 2,247 7.4 -11.9°
Maximum altitude 19:34:56 66° 256° (WSW) 785 4.2 -12.6°
Drops below altitude 10° 19:39:44 10° 175° (S) 2,191 6.0 -13.3°
Enters shadow 19:40:05 - 174° (S) 2,330 6.1 -13.3°
